x

Ne Puerto Rico - 170 Nm Nne Of San Juan, P R (41043) Wave Buoy

6:40pm - Thu 23rd Feb 2017 All times are AST. -4 hours from GMT.

  • Sig Wave height 8.5ft
  • Swell Direction
  • Average Period 7s
  • Wind
    20mph, 25mph gusts
  • Sea Temp 79°f
  • Air Temp 77°f
  • Sea Pressure 1013.3mb
  • Ne Puerto Rico  - 170 Nm Nne Of San Juan,  P R
  • Ne Puerto Rico  - 170 Nm Nne Of San Juan,  P R

More Historic Weather Station data

Upgrade to MSW Pro to gain access to the past 30 days of data for over 8000 Wavebouys and Weather Stations around the globe.

Join Pro

Comparision Forecast

View Surf forecast
   
Thu 02/23 6:40pm 8.5ft  -  7s 20 25 mph 1013.3mb 79f 77f
6:30pm  -   -   -  20 25 mph 1013.5mb 79f 77f
6:20pm  -   -   -  18 22 mph 1013.5mb 79f 77f
6:10pm  -   -   -  20 25 mph 1013.3mb 79f 77f
6:00pm  -   -   -  18 22 mph 1013.4mb 79f 77f
5:50pm 9.5ft 11s 8s 18 22 mph 1013.3mb 79f 77f
5:40pm 9.5ft  -  8s 18 22 mph 1013.3mb 79f 77f
5:30pm  -   -   -  18 22 mph 1013.4mb 79f 77f
5:20pm  -   -   -  18 25 mph 1013.3mb 79f 76f
5:10pm  -   -   -  20 22 mph 1013.4mb 79f 76f
5:00pm  -   -   -  18 25 mph 1013.2mb 79f 76f
4:50pm 8ft 11s 7s 18 22 mph 1013.1mb 79f 76f
4:40pm 8ft  -  7s 18 25 mph 1012.9mb 79f 76f
4:30pm  -   -   -  20 25 mph 1012.9mb 79f 76f
4:20pm  -   -   -  18 25 mph 1012.9mb 79f 76f
4:10pm  -   -   -  18 22 mph 1012.9mb 79f 76f
4:00pm  -   -   -  18 25 mph 1012.9mb 79f 76f
3:50pm 8.5ft 11s 7s 20 25 mph 1012.9mb 79f 76f
3:40pm  -   -   -  20 25 mph 1012.8mb 79f 76f
3:30pm  -   -   -  18 22 mph 1012.8mb 79f 76f
3:20pm  -   -   -  18 22 mph 1012.9mb 79f 76f
3:10pm  -   -   -  18 22 mph 1013.1mb 79f 76f
3:00pm  -   -   -  18 22 mph 1013.3mb 79f 76f
2:50pm 9ft 12s 7s 18 22 mph 1013.3mb 79f 76f
2:40pm  -   -   -  18 22 mph 1013.3mb 79f 76f
2:30pm  -   -   -  18 22 mph 1013.4mb 79f 76f
2:20pm  -   -   -  18 22 mph 1013.4mb 79f 76f
2:10pm  -   -   -  18 22 mph 1013.5mb 79f 76f
2:00pm  -   -   -  18 25 mph 1013.6mb 79f 76f
1:50pm 8.5ft 11s 8s 18 22 mph 1013.6mb 79f 76f
1:40pm 8.5ft  -  8s 18 25 mph 1013.8mb 79f 76f
1:30pm  -   -   -  18 20 mph 1014mb 79f 76f
1:20pm  -   -   -  18 22 mph 1014.1mb 79f 76f
1:10pm  -   -   -  18 22 mph 1014.2mb 79f 76f
1:00pm  -   -   -  18 22 mph 1014.4mb 79f 76f
12:50pm 8ft 11s 7s 18 20 mph 1014.5mb 79f 76f
12:40pm 8ft  -  7s 18 20 mph 1014.6mb 79f 76f
12:30pm  -   -   -  18 20 mph 1014.8mb 79f 76f
12:20pm  -   -   -  18 22 mph 1015mb 79f 76f
12:10pm  -   -   -  18 22 mph 1015.1mb 79f 76f
12:00pm  -   -   -  18 22 mph 1015.3mb 79f 76f
11:50am 9ft 11s 8s 18 22 mph 1015.4mb 79f 76f
11:40am 9ft  -  8s 16 22 mph 1015.5mb 79f 76f
11:30am  -   -   -  16 20 mph 1015.7mb 79f 76f
11:20am  -   -   -  16 20 mph 1015.7mb 79f 76f
11:10am  -   -   -  16 22 mph 1015.8mb 79f 76f
11:00am  -   -   -  16 20 mph 1015.9mb 79f 76f
10:50am 9ft 11s 8s 16 20 mph 1016mb 79f 76f
10:40am  -   -   -  16 20 mph 1016mb 79f 76f
10:30am  -   -   -  16 20 mph 1016.1mb 79f 76f
10:20am  -   -   -  16 20 mph 1016.2mb 79f 76f
10:10am  -   -   -  16 20 mph 1016.1mb 79f 76f
10:00am  -   -   -  16 20 mph 1016.1mb 79f 76f
9:50am 8.5ft 12s 7s 16 18 mph 1016.1mb 79f 76f
9:40am 8.5ft  -  7s 16 20 mph 1016.1mb 79f 76f
9:30am  -   -   -  16 20 mph 1015.9mb 79f 76f
9:20am  -   -   -  13 18 mph 1016mb - 76f
9:10am  -   -   -  16 20 mph 1016mb 79f 75f
9:00am  -   -   -  16 20 mph 1015.9mb 79f 75f
8:50am 9ft 11s 8s 13 18 mph 1015.7mb 79f 75f
8:40am  -   -   -  16 20 mph 1015.6mb 79f 75f
8:30am  -   -   -  16 18 mph 1015.5mb 79f 75f
8:20am  -   -   -  16 18 mph 1015.4mb 79f 75f
8:10am  -   -   -  16 18 mph 1015.3mb 79f 75f
8:00am  -   -   -  16 20 mph 1015.1mb 79f 75f
7:50am 7ft 10s 7s 16 20 mph 1014.9mb 79f 75f
7:40am  -   -   -  16 20 mph 1014.8mb 79f 75f
7:30am  -   -   -  16 20 mph 1014.7mb 79f 75f
7:20am  -   -   -  16 20 mph 1014.6mb 79f 75f
7:10am  -   -   -  16 22 mph 1014.6mb 79f 75f
7:00am  -   -   -  16 20 mph 1014.4mb 79f 75f
6:50am  -   -   -  16 20 mph 1014.1mb 79f 75f
6:40am  -   -   -  16 18 mph 1014.1mb 79f 75f
6:20am  -   -   -  16 20 mph 1013.7mb 79f 75f
6:10am  -   -   -  18 20 mph 1013.6mb - 75f
6:00am  -   -   -  16 20 mph 1013.4mb 79f 75f
Wed 02/22 6:50pm 6ft 8s 6s 13 16 mph 1013mb 79f 74f
5:50pm 7.5ft 8s 7s 13 18 mph 1012.9mb 79f 74f
4:50pm 6.5ft 8s 6s 13 18 mph 1012.7mb 79f 74f
3:50pm 7ft 9s 6s 16 22 mph 1012.2mb 79f 74f
2:50pm 6.5ft 8s 6s 16 20 mph 1012mb 79f 74f
1:50pm 6.5ft 8s 6s 16 20 mph 1012.3mb 79f 74f
12:50pm 7ft 8s 6s 16 20 mph 1012.7mb 79f 75f
11:50am 6ft 6s 5s 18 22 mph 1013.2mb 79f 75f
10:50am 6ft 6s 5s 18 25 mph 1013.4mb 79f 75f
9:50am 6ft 7s 5s 20 25 mph 1013.3mb 79f 75f
8:50am 6ft 7s 5s 18 22 mph 1012.6mb 79f 75f
6:50am 5.5ft 6s 5s 18 22 mph 1011.2mb 79f 75f
6:40am 5.5ft  -  5s 16 20 mph 1011.2mb 79f 75f
6:30am  -   -   -  18 22 mph 1011.1mb 79f 75f
6:20am  -   -   -  16 20 mph 1011mb 79f 75f
6:10am  -   -   -  16 20 mph 1010.8mb 79f 75f
6:00am  -   -   -  16 20 mph 1010.7mb 79f 75f
5:50am 5.5ft 7s 5s 16 20 mph 1010.4mb 79f 75f
5:40am 5.5ft  -  5s 16 20 mph 1010.4mb 79f 75f
5:30am  -   -   -  16 20 mph 1010.3mb 79f 75f
5:20am  -   -   -  18 22 mph 1010.3mb 79f 75f
5:10am  -   -   -  18 25 mph 1010.3mb 79f 75f
5:00am  -   -   -  18 25 mph 1010.2mb 79f 75f
4:50am 5.5ft 8s 5s 18 22 mph 1010mb 79f 75f
4:40am 5.5ft  -  5s 18 22 mph 1009.9mb - 75f
4:30am  -   -   -  18 22 mph 1009.8mb 79f 75f
4:20am  -   -   -  18 22 mph 1009.7mb 79f 76f
4:10am  -   -   -  20 27 mph 1009.8mb 79f 76f
4:00am  -   -   -  18 25 mph 1009.8mb 79f 75f
3:50am 6ft 6s 5s 18 22 mph 1009.9mb 79f 75f
3:40am  -   -   -  18 22 mph 1010.1mb 79f 75f
3:30am  -   -   -  20 25 mph 1010.1mb 79f 75f
3:20am  -   -   -  18 25 mph 1010.3mb 79f 74f
3:10am  -   -   -  18 27 mph 1010.2mb 79f 75f
3:00am  -   -   -  16 18 mph 1010.5mb 79f 75f
2:50am 5.5ft 8s 5s 16 20 mph 1010.7mb 79f 76f
2:40am 5.5ft  -  5s 16 20 mph 1010.6mb 79f 76f
2:30am  -   -   -  16 18 mph 1010.7mb 79f 76f
2:20am  -   -   -  16 20 mph 1010.9mb 79f 76f
2:10am  -   -   -  18 22 mph 1011mb 79f 76f
2:00am  -   -   -  16 20 mph 1011.1mb 79f 76f
1:50am 5ft 6s 5s 13 18 mph 1011.2mb 79f 76f
1:40am  -   -   -  16 18 mph 1011.4mb 79f 76f
1:30am  -   -   -  16 20 mph 1011.5mb 79f 76f
1:20am  -   -   -  16 18 mph 1011.6mb 79f 76f
1:10am  -   -   -  16 20 mph 1011.6mb - 76f
1:00am  -   -   -  16 22 mph 1011.6mb 79f 76f
12:50am 5ft 6s 5s 16 20 mph 1011.6mb 79f 76f
12:40am 5ft  -  5s 16 20 mph 1011.8mb 79f 76f
12:30am  -   -   -  16 20 mph 1011.8mb 79f 76f
12:20am  -   -   -  16 20 mph 1011.8mb 79f 76f
12:10am  -   -   -  16 18 mph 1011.9mb 79f 76f
12:00am  -   -   -  16 18 mph 1011.9mb 79f 76f
Tue 02/21 11:50pm 5ft 7s 5s 13 18 mph 1011.9mb 79f 76f
11:40pm 5ft  -  5s 16 18 mph 1011.9mb 79f 76f
11:30pm  -   -   -  13 18 mph 1012mb 79f 76f
11:20pm  -   -   -  13 18 mph 1012mb 79f 76f
11:10pm  -   -   -  13 16 mph 1012.1mb 79f 76f
11:00pm  -   -   -  13 18 mph 1012mb 79f 76f
10:50pm 6ft 7s 5s 13 16 mph 1012mb 79f 76f
10:40pm  -   -   -  13 20 mph 1011.9mb 79f 76f
10:30pm  -   -   -  13 16 mph 1011.9mb 79f 75f
10:20pm  -   -   -  9 16 mph 1012mb 79f 74f
10:10pm  -   -   -  9 16 mph 1012.1mb 79f 74f
10:00pm  -   -   -  16 18 mph 1012mb 79f 75f
9:50pm 6ft 6s 5s 11 16 mph 1012mb 79f 75f
9:40pm  -   -   -  11 16 mph 1011.9mb 79f 75f
9:30pm  -   -   -  13 16 mph 1011.8mb 79f 75f
9:20pm  -   -   -  13 18 mph 1011.7mb 79f 75f
9:10pm  -   -   -  13 18 mph 1011.7mb 79f 74f
9:00pm  -   -   -  13 18 mph 1011.6mb 79f 74f
8:50pm 6ft 7s 5s 13 18 mph 1011.7mb 79f 74f
8:40pm 6ft  -  5s 16 18 mph 1011.6mb 79f 74f
8:30pm  -   -   -  18 22 mph 1011.5mb 79f 74f
8:20pm  -   -   -  18 25 mph 1011.4mb 79f 75f
8:10pm  -   -   -  16 22 mph 1011.3mb 79f 76f
8:00pm  -   -   -  16 20 mph 1011.3mb 79f 75f
7:50pm 6ft 6s 5s 16 20 mph 1011.3mb 79f 75f
7:40pm 6ft  -  5s 16 20 mph 1011.2mb 79f 75f
7:30pm  -   -   -  18 20 mph 1011.1mb 79f 76f
7:20pm  -   -   -  18 22 mph 1011.1mb 79f 75f
7:10pm  -   -   -  18 25 mph 1010.9mb 79f 75f
7:00pm  -   -   -  18 22 mph 1010.9mb 79f 75f
6:50pm 5.5ft 5s 5s 18 22 mph 1010.8mb 79f 75f
6:40pm  -   -   -  18 22 mph 1010.8mb 79f 75f
6:30pm  -   -   -  18 22 mph 1010.8mb 79f 75f
6:20pm  -   -   -  18 20 mph 1010.8mb 79f 75f
6:10pm  -   -   -  18 22 mph 1010.6mb - 76f
6:00pm  -   -   -  18 22 mph 1010.6mb 79f 76f
5:50pm 5ft 6s 5s 18 25 mph 1010.5mb 79f 76f
5:40pm 5ft  -  5s 20 22 mph 1010.5mb 79f 76f
5:30pm  -   -   -  18 22 mph 1010.4mb 79f 76f
5:20pm  -   -   -  18 22 mph 1010.4mb 79f 76f
5:10pm  -   -   -  18 25 mph 1010.4mb 79f 76f
5:00pm  -   -   -  18 22 mph 1010.2mb 79f 76f
4:50pm 5ft 9s 5s 18 25 mph 1010.2mb 79f 76f
4:40pm 5ft  -  5s 20 25 mph 1010.1mb 79f 76f
4:30pm  -   -   -  20 25 mph 1010.2mb 79f 76f
4:20pm  -   -   -  18 25 mph 1010.2mb 79f 76f
4:10pm  -   -   -  18 22 mph 1010.3mb 79f 76f
4:00pm  -   -   -  20 25 mph 1010.4mb 79f 76f
3:50pm 4.5ft 7s 5s 18 25 mph 1010.2mb 79f 75f
3:40pm  -   -   -  18 22 mph 1010.3mb 79f 75f
3:30pm  -   -   -  16 22 mph 1010.3mb 79f 74f
3:20pm  -   -   -  20 27 mph 1010.5mb 79f 74f
3:10pm  -   -   -  20 27 mph 1010.4mb 79f 75f
3:00pm  -   -   -  16 20 mph 1010.5mb 79f 76f
2:50pm 5ft 8s 5s 16 22 mph 1010.6mb 79f 76f
2:40pm 5ft  -  5s 16 20 mph 1010.6mb 79f 75f
2:30pm  -   -   -  18 22 mph 1010.6mb 79f 75f
2:20pm  -   -   -  18 20 mph 1010.7mb - 75f
2:10pm  -   -   -  18 22 mph 1010.8mb 79f 75f
2:00pm  -   -   -  16 22 mph 1010.8mb 79f 75f
1:50pm 4.5ft 6s 5s 18 22 mph 1011mb 79f 75f
1:40pm 4.5ft  -  5s 18 25 mph 1011.1mb 79f 75f
1:30pm  -   -   -  16 22 mph 1011.2mb 79f 75f
1:20pm  -   -   -  18 22 mph 1011.3mb 79f 75f
1:10pm  -   -   -  20 25 mph 1011.5mb 79f 75f
1:00pm  -   -   -  18 25 mph 1011.5mb 79f 75f
12:50pm 4.5ft 6s 5s 16 22 mph 1011.7mb 79f 75f
12:40pm  -   -   -  16 20 mph 1011.9mb 79f 75f
12:30pm  -   -   -  16 18 mph 1012mb 79f 75f
12:20pm  -   -   -  13 18 mph 1012.1mb 79f 75f
12:10pm  -   -   -  13 20 mph 1012.1mb 79f 75f
12:00pm  -   -   -  13 18 mph 1012.3mb 79f 75f
11:50am 5ft 8s 5s 13 18 mph 1012.4mb 79f 75f
11:40am 5ft  -  5s 13 18 mph 1012.4mb 79f 75f
11:30am  -   -   -  16 18 mph 1012.5mb 79f 75f
11:20am  -   -   -  16 18 mph 1012.6mb 79f 75f
11:10am  -   -   -  13 18 mph 1012.7mb 79f 75f
11:00am  -   -   -  16 20 mph 1012.7mb 79f 75f
10:50am 4.5ft 10s 5s 16 20 mph 1012.8mb 79f 75f
10:40am 4.5ft  -  5s 16 20 mph 1012.8mb 79f 75f
10:30am  -   -   -  16 20 mph 1012.8mb 79f 75f
10:20am  -   -   -  16 18 mph 1012.8mb 79f 75f
10:10am  -   -   -  13 18 mph 1012.7mb 79f 75f
10:00am  -   -   -  16 20 mph 1012.6mb 79f 75f
9:50am  -   -   -  16 18 mph 1012.7mb 79f 75f
9:40am  -   -   -  16 20 mph 1012.6mb 79f 75f
9:30am  -   -   -  16 20 mph 1012.4mb 79f 75f
9:20am  -   -   -  16 20 mph 1012.4mb 79f 75f
9:10am  -   -   -  16 22 mph 1012.1mb 79f 75f
9:00am  -   -   -  13 18 mph 1012.1mb 79f 75f
8:50am 4.5ft 8s 5s 16 20 mph 1012mb 79f 75f
8:40am  -   -   -  18 22 mph 1011.9mb 79f 75f
8:30am  -   -   -  16 20 mph 1011.8mb 79f 75f
8:20am  -   -   -  16 20 mph 1011.6mb 79f 75f
8:10am  -   -   -  16 22 mph 1011.6mb 79f 75f
8:00am  -   -   -  16 20 mph 1011.6mb 79f 75f
7:50am 4.5ft 8s 5s 16 20 mph 1011.5mb 79f 75f
7:40am 4.5ft  -  5s 16 20 mph 1011.3mb 79f 75f
7:30am  -   -   -  16 20 mph 1011.2mb 79f 75f
7:20am  -   -   -  16 20 mph 1011.1mb 79f 74f
7:10am  -   -   -  18 22 mph 1011.1mb 79f 74f
7:00am  -   -   -  16 20 mph 1011mb 79f 74f
6:50am 4.5ft 8s 5s 16 20 mph 1010.9mb 79f 74f
6:40am  -   -   -  16 20 mph 1010.9mb - 75f
6:30am  -   -   -  16 20 mph 1010.8mb 79f 74f
6:20am  -   -   -  16 20 mph 1010.6mb 79f 75f
6:10am  -   -   -  16 20 mph 1010.6mb 79f 75f
6:00am  -   -   -  13 20 mph 1010.5mb 79f 74f
5:50am 4.5ft 8s 6s 16 20 mph 1010.3mb 79f 74f
5:40am 4.5ft  -  6s 13 20 mph 1010.2mb 79f 74f
5:30am  -   -   -  9 13 mph 1010.3mb - 74f
5:20am  -   -   -  9 13 mph 1010.4mb 79f 74f
5:10am  -   -   -  9 13 mph 1010.4mb - 73f
5:00am  -   -   -  7 9 mph 1010.2mb 79f 73f
4:50am 4.5ft 9s 5s 9 11 mph 1010.2mb 79f 73f
4:40am 4.5ft  -  5s 9 11 mph 1010.2mb 79f 72f
4:30am  -   -   -  11 18 mph 1010.3mb 79f 71f
4:20am  -   -   -  18 29 mph 1010.2mb 79f 73f
4:10am  -   -   -  13 20 mph 1010.1mb 79f 74f
3:50am 5ft 8s 6s 13 18 mph 1010.2mb 79f 74f
3:40am 5ft  -  6s 13 20 mph 1010.1mb 79f 74f
3:30am  -   -   -  16 20 mph 1010.2mb 79f 74f
3:20am  -   -   -  16 20 mph 1010.3mb 79f 74f
3:10am  -   -   -  16 20 mph 1010.2mb 79f 74f
3:00am  -   -   -  13 18 mph 1010.2mb 79f 74f
2:50am 5ft 9s 6s 13 18 mph 1010.3mb 79f 74f
2:40am  -   -   -  13 18 mph 1010.4mb 79f 74f
2:30am  -   -   -  13 18 mph 1010.7mb 79f 74f
2:20am  -   -   -  13 20 mph 1010.7mb 79f 74f
2:10am  -   -   -  13 18 mph 1010.7mb 79f 74f
2:00am  -   -   -  13 18 mph 1010.8mb 79f 74f
1:50am 4.5ft 9s 6s 13 16 mph 1011mb 79f 74f
1:40am  -   -   -  11 16 mph 1011.2mb 79f 74f
1:30am  -   -   -  11 18 mph 1011.2mb 79f 74f
1:20am  -   -   -  11 18 mph 1011.2mb 79f 74f
1:10am  -   -   -  13 18 mph 1011.6mb 79f 74f
1:00am  -   -   -  9 13 mph 1011.4mb 79f 73f
12:50am 4.5ft 10s 6s 11 13 mph 1011.4mb 79f 73f
12:40am 4.5ft  -  6s 9 13 mph 1011.5mb 79f 73f
12:30am  -   -   -  11 13 mph 1011.7mb 79f 73f
12:20am  -   -   -  11 16 mph 1011.8mb 79f 73f
12:10am  -   -   -  13 18 mph 1012mb 79f 73f
12:00am  -   -   -  13 16 mph 1011.9mb 79f 73f
Mon 02/20 11:50pm 4.5ft 10s 6s 13 16 mph 1011.9mb 79f 73f
11:40pm 4.5ft  -  6s 11 16 mph 1011.9mb 79f 73f
11:30pm  -   -   -  11 16 mph 1012mb 79f 73f
11:20pm  -   -   -  16 20 mph 1012.1mb 79f 73f
11:10pm  -   -   -  16 22 mph 1012.5mb 79f 74f
11:00pm  -   -   -  13 18 mph 1012.7mb 79f 74f
10:50pm 5ft 10s 6s 16 20 mph 1012.9mb 79f 74f
10:40pm  -   -   -  13 18 mph 1012.8mb 79f 74f
10:30pm  -   -   -  11 16 mph 1012.7mb 79f 73f
10:20pm  -   -   -  9 16 mph 1012.7mb 79f 73f
10:10pm  -   -   -  9 13 mph 1012.6mb 79f 73f
10:00pm  -   -   -  9 11 mph 1012.5mb 79f 73f
9:50pm 6ft 10s 6s 9 13 mph 1012.6mb 79f 73f
9:40pm 6ft  -  6s 13 18 mph 1012.6mb 79f 74f
9:30pm  -   -   -  11 18 mph 1012.7mb 79f 73f
9:20pm  -   -   -  7 11 mph 1012.9mb 79f 73f
9:10pm  -   -   -  4 9 mph 1012.7mb 79f 72f
9:00pm  -   -   -  7 11 mph 1012.7mb 79f 72f
8:50pm 6ft 6s 5s 7 11 mph 1012.8mb 79f 72f
8:40pm  -   -   -  9 13 mph 1012.9mb 79f 71f
8:30pm  -   -   -  9 13 mph 1012.9mb 79f 71f
8:20pm  -   -   -  11 18 mph 1013mb 79f 72f
8:10pm  -   -   -  9 16 mph 1013.4mb 79f 72f
8:00pm  -   -   -  20 27 mph 1013.5mb 79f 73f
7:50pm 6ft 9s 5s 18 25 mph 1013.6mb 79f 74f
7:40pm  -   -   -  16 20 mph 1013.2mb 79f 74f
7:30pm  -   -   -  16 20 mph 1012.9mb 79f 74f
7:20pm  -   -   -  11 16 mph 1013.1mb 79f 73f
7:10pm  -   -   -  11 16 mph 1013.1mb 79f 73f
7:00pm  -   -   -  13 20 mph 1012.9mb 79f 73f
6:50pm 6ft 9s 5s 18 22 mph 1013mb 79f 73f
6:40pm  -   -   -  18 22 mph 1013.1mb 79f 73f
6:30pm  -   -   -  20 27 mph 1013mb 79f 73f
6:20pm  -   -   -  25 29 mph 1013.1mb 79f 73f
6:10pm  -   -   -  22 29 mph 1013.1mb 79f 73f
6:00pm  -   -   -  16 22 mph 1012.9mb 79f 71f
5:50pm 5.5ft 8s 5s 9 13 mph 1012.8mb 79f 70f
5:40pm 5.5ft  -  5s 20 34 mph 1012.9mb 79f 73f
5:30pm  -   -   -  27 31 mph 1012.4mb - 74f
5:20pm  -   -   -  25 31 mph 1011.7mb 79f 73f
5:10pm  -   -   -  25 34 mph 1011.6mb 79f 74f
5:00pm  -   -   -  25 31 mph 1011.7mb 79f 76f
4:50pm 5.5ft 10s 5s 22 29 mph 1011.9mb 79f 76f
4:40pm  -   -   -  22 27 mph 1011.9mb 79f 76f
4:30pm  -   -   -  20 25 mph 1012.1mb 79f 75f
4:20pm  -   -   -  18 34 mph 1012.3mb 79f 74f
4:10pm  -   -   -  22 29 mph 1012.1mb 79f 77f
4:00pm  -   -   -  20 25 mph 1012mb 79f 77f
3:50pm 5ft 11s 5s 20 25 mph 1012.1mb 79f 78f
3:40pm 5ft  -  5s 18 22 mph 1012mb 79f 78f
3:30pm  -   -   -  18 25 mph 1011.9mb 79f 78f
3:20pm  -   -   -  18 22 mph 1012mb 79f 78f
3:10pm  -   -   -  18 22 mph 1011.9mb 79f 78f
3:00pm  -   -   -  18 22 mph 1011.9mb 79f 78f
2:50pm 5ft 10s 6s 16 22 mph 1011.8mb 79f 78f
2:40pm 5ft  -  6s 16 20 mph 1011.9mb 79f 78f
2:30pm  -   -   -  16 22 mph 1012.1mb 79f 78f
2:20pm  -   -   -  18 22 mph 1012.1mb 79f 78f
2:10pm  -   -   -  18 22 mph 1012.3mb 79f 78f
2:00pm  -   -   -  18 22 mph 1012.5mb 79f 78f
1:50pm 5ft 10s 5s 18 22 mph 1012.6mb 79f 78f
1:40pm  -   -   -  18 22 mph 1012.8mb 79f 78f
1:30pm  -   -   -  18 22 mph 1013mb 79f 78f
1:20pm  -   -   -  18 22 mph 1013.2mb 79f 78f
1:10pm  -   -   -  18 25 mph 1013.4mb 79f 78f
1:00pm  -   -   -  18 25 mph 1013.5mb 79f 78f
12:50pm 5ft 11s 6s 20 27 mph 1013.4mb 79f 77f
12:40pm  -   -   -  22 29 mph 1013.5mb 79f 78f
12:30pm  -   -   -  20 25 mph 1013.7mb 79f 78f
12:20pm  -   -   -  20 27 mph 1013.8mb 79f 77f
12:10pm  -   -   -  20 27 mph 1014mb 79f 78f
12:00pm  -   -   -  18 22 mph 1014.2mb 79f 78f
11:50am 5ft 10s 7s 16 22 mph 1014.3mb 79f 77f
11:40am  -   -   -  13 18 mph 1014.6mb 79f 77f
11:30am  -   -   -  16 20 mph 1014.6mb 79f 77f
11:20am  -   -   -  13 20 mph 1014.9mb 79f 78f
11:10am  -   -   -  11 16 mph 1015.1mb 79f 78f
11:00am  -   -   -  11 16 mph 1015.3mb 79f 78f
10:50am 5ft 10s 7s 13 16 mph 1015.5mb 79f 78f
10:40am 5ft  -  7s 11 16 mph 1015.7mb 79f 78f
10:30am  -   -   -  9 13 mph 1015.9mb 79f 77f
10:20am  -   -   -  7 9 mph 1016mb 79f 77f
10:10am  -   -   -  7 11 mph 1016.1mb 79f 77f
10:00am  -   -   -  7 11 mph 1016mb 79f 77f
9:50am 5.5ft 10s 7s 9 13 mph 1015.7mb 79f 76f
9:40am  -   -   -  11 13 mph 1015.7mb 79f 76f
9:30am  -   -   -  11 16 mph 1015.6mb 79f 76f
9:20am  -   -   -  11 16 mph 1015.6mb 79f 77f
9:10am  -   -   -  11 16 mph 1015.4mb 79f 77f
9:00am  -   -   -  13 16 mph - - -
8:50am 5ft 9s 7s 9 16 mph 1015mb 79f 76f
8:40am 5ft  -  7s 7 9 mph 1015.2mb 79f 76f
8:30am  -   -   -  4 9 mph 1015.3mb 79f 76f
8:20am  -   -   -  4 7 mph 1015.4mb 79f 77f
8:10am  -   -   -  4 9 mph 1015.3mb 79f 76f
8:00am  -   -   -  7 9 mph 1015.2mb 79f 76f
7:50am 5.5ft 10s 7s 7 11 mph 1015.1mb 79f 76f
7:40am 5.5ft  -  7s 7 11 mph 1015.2mb 79f 76f
7:30am  -   -   -  7 9 mph 1015.1mb 79f 76f
7:20am  -   -   -  7 11 mph 1014.9mb 79f 76f
7:10am  -   -   -  7 11 mph 1014.9mb 79f 76f
7:00am  -   -   -  7 9 mph 1014.9mb 79f 76f
6:50am 6ft 11s 7s 9 11 mph 1014.7mb 79f 76f
6:40am  -   -   -  9 11 mph 1014.6mb 79f 76f
6:30am  -   -   -  9 11 mph 1014.5mb 79f 76f
6:20am  -   -   -  9 13 mph 1014.5mb 79f 76f
6:10am  -   -   -  9 13 mph 1014.4mb 79f 76f
6:00am  -   -   -  7 11 mph 1014.5mb 79f 76f
5:50am 5.5ft 11s 7s 9 11 mph 1014.7mb 79f 76f
5:40am 5.5ft  -  7s 9 13 mph 1014.7mb 79f 76f
5:30am  -   -   -  11 13 mph 1014.7mb 79f 76f
5:20am  -   -   -  11 16 mph 1014.5mb 79f 76f
5:10am  -   -   -  13 16 mph 1014.6mb 79f 76f
5:00am  -   -   -  13 18 mph 1014.4mb 79f 76f
4:50am 6ft 10s 6s 16 20 mph 1014.4mb 79f 76f
4:40am 6ft  -  6s 18 22 mph 1014.2mb 79f 76f
4:30am  -   -   -  18 22 mph 1014.3mb 79f 76f
4:20am  -   -   -  16 20 mph 1014.3mb 79f 76f
4:10am  -   -   -  16 20 mph 1014.3mb 79f 75f
4:00am  -   -   -  18 22 mph 1014.4mb 79f 75f
3:50am 6ft 11s 6s 16 20 mph 1014.5mb 79f 75f
3:40am 6ft  -  6s 16 18 mph 1014.6mb 79f 75f
3:30am  -   -   -  16 20 mph 1014.7mb 79f 75f
3:20am  -   -   -  18 20 mph 1014.8mb 79f 75f
3:10am  -   -   -  16 20 mph 1014.9mb 79f 75f
3:00am  -   -   -  16 18 mph 1015.1mb 79f 75f
2:50am 6ft 10s 7s 13 16 mph 1015.4mb 79f 75f
2:40am 6ft  -  7s 11 16 mph 1015.7mb 79f 74f
2:30am  -   -   -  11 13 mph 1016mb 79f 74f
2:20am  -   -   -  11 16 mph 1016.3mb 79f 74f
2:10am  -   -   -  11 16 mph 1016.4mb 79f 75f
2:00am  -   -   -  11 13 mph 1016.5mb 79f 75f
1:50am 6ft 8s 7s 11 16 mph 1016.7mb 79f 75f
1:40am  -   -   -  13 16 mph 1016.8mb 79f 75f
1:30am  -   -   -  13 18 mph 1016.9mb 79f 75f
1:20am  -   -   -  11 18 mph 1017.1mb 79f 76f
1:10am  -   -   -  11 16 mph 1017.1mb 79f 76f
1:00am  -   -   -  11 16 mph 1017.3mb 79f 76f
12:50am 6ft 10s 6s 11 16 mph 1017.6mb 79f 76f
12:40am 6ft  -  6s 13 16 mph 1017.7mb 79f 76f
12:30am  -   -   -  11 16 mph 1017.7mb 79f 77f
12:20am  -   -   -  11 16 mph 1017.8mb 79f 77f
12:10am  -   -   -  11 16 mph 1017.9mb 79f 77f
12:00am  -   -   -  11 16 mph 1017.9mb 79f 76f
Sun 02/19 11:50pm 6ft 11s 7s 11 16 mph 1017.9mb 79f 77f
11:40pm 6ft  -  7s 11 16 mph 1018mb 79f 77f
11:30pm  -   -   -  11 16 mph 1018.3mb 79f 77f
11:20pm  -   -   -  13 16 mph 1018.5mb 79f 77f